| time (UTC) | temp C | wind direction | speed KPH | gust KPH | rain 1hr cm | rain 24hr cm | rain mn cm | humidity % | barometer mb |
| 20260508023523 | 7 | 323 | 0.0 | 0.0 | 0.00 | 0.03 | 0.03 | 71 | 1015.0 |
| 20260508023021 | 7 | 323 | 0.0 | 0.0 | 0.00 | 0.03 | 0.03 | 71 | 1014.7 |
| 20260508022516 | 7 | 323 | 0.0 | 0.0 | 0.00 | 0.03 | 0.03 | 72 | 1014.7 |
| 20260508022013 | 7 | 325 | 0.0 | 0.0 | 0.00 | 0.03 | 0.03 | 72 | 1014.6 |
| 20260508021509 | 8 | 325 | 0.0 | 0.0 | 0.00 | 0.03 | 0.03 | 73 | 1014.5 |
| 20260508021005 | 8 | 324 | 0.0 | 0.0 | 0.00 | 0.03 | 0.03 | 71 | 1014.6 |
| 20260508020503 | 8 | 323 | 0.0 | 0.0 | 0.00 | 0.03 | 0.03 | 71 | 1014.3 |
| 20260508020000 | 8 | 331 | 0.0 | 0.0 | 0.00 | 0.03 | 0.03 | 70 | 1014.6 |
| 20260508015458 | 8 | 335 | 0.0 | 0.0 | 0.00 | 0.03 | 0.03 | 70 | 1014.2 |
| 20260508014954 | 8 | 335 | 0.0 | 0.0 | 0.00 | 0.03 | 0.03 | 70 | 1014.2 |
| 20260508014451 | 8 | 334 | 0.0 | 0.0 | 0.00 | 0.03 | 0.03 | 69 | 1014.2 |
| 20260508013947 | 8 | 310 | 0.0 | 0.0 | 0.00 | 0.03 | 0.03 | 69 | 1014.2 |
| 20260508013443 | 9 | 327 | 0.0 | 0.0 | 0.00 | 0.03 | 0.03 | 69 | 1014.0 |
| 20260508012941 | 9 | 327 | 0.0 | 0.0 | 0.00 | 0.03 | 0.03 | 68 | 1014.0 |
| 20260508012437 | 9 | 327 | 0.0 | 0.0 | 0.00 | 0.03 | 0.03 | 68 | 1013.9 |
| 20260508011935 | 9 | 327 | 0.0 | 0.0 | 0.00 | 0.03 | 0.03 | 69 | 1013.8 |
| 20260508011434 | 9 | 327 | 0.0 | 0.0 | 0.00 | 0.03 | 0.03 | 68 | 1014.0 |
| 20260508010930 | 9 | 338 | 1.6 | 1.6 | 0.00 | 0.03 | 0.03 | 69 | 1013.6 |
| 20260508010427 | 9 | 339 | 0.0 | 0.0 | 0.00 | 0.03 | 0.03 | 68 | 1013.6 |
| 20260508005924 | 10 | 339 | 0.0 | 0.0 | 0.00 | 0.03 | 0.03 | 68 | 1013.6 |
| 20260508005421 | 10 | 339 | 0.0 | 0.0 | 0.00 | 0.03 | 0.03 | 67 | 1013.7 |
| 20260508004917 | 10 | 335 | 0.0 | 0.0 | 0.00 | 0.03 | 0.03 | 66 | 1013.6 |
| 20260508004413 | 10 | 334 | 0.0 | 0.0 | 0.00 | 0.03 | 0.03 | 65 | 1013.8 |
| 20260508003910 | 10 | 334 | 0.0 | 1.6 | 0.00 | 0.03 | 0.03 | 65 | 1013.6 |
| 20260508003407 | 10 | 335 | 0.0 | 0.0 | 0.00 | 0.03 | 0.03 | 65 | 1013.5 |
| 20260508002904 | 10 | 330 | 0.0 | 0.0 | 0.00 | 0.03 | 0.03 | 64 | 1013.6 |
| 20260508002400 | 10 | 329 | 1.6 | 1.6 | 0.00 | 0.03 | 0.03 | 63 | 1013.5 |
| 20260508001857 | 11 | 335 | 1.6 | 1.6 | 0.00 | 0.03 | 0.03 | 62 | 1013.3 |
| 20260508001353 | 11 | 330 | 1.6 | 1.6 | 0.00 | 0.03 | 0.03 | 63 | 1013.1 |
| 20260508000849 | 11 | 337 | 1.6 | 3.2 | 0.00 | 0.03 | 0.03 | 62 | 1013.3 |
| 20260508000346 | 11 | 326 | 1.6 | 3.2 | 0.00 | 0.03 | 0.03 | 63 | 1013.2 |
| 20260507235842 | 11 | 323 | 0.0 | 1.6 | 0.00 | 0.03 | 0.03 | 63 | 1013.1 |
| 20260507235340 | 11 | 328 | 4.8 | 8.0 | 0.00 | 0.03 | 0.03 | 60 | 1013.1 |
| 20260507234837 | 11 | 338 | 4.8 | 8.0 | 0.00 | 0.03 | 0.03 | 60 | 1013.3 |
| 20260507234333 | 11 | 329 | 1.6 | 1.6 | 0.00 | 0.03 | 0.03 | 62 | 1013.1 |
| 20260507233830 | 11 | 275 | 4.8 | 4.8 | 0.00 | 0.03 | 0.03 | 61 | 1013.1 |
| 20260507233328 | 12 | 346 | 3.2 | 3.2 | 0.00 | 0.03 | 0.03 | 60 | 1012.9 |
| 20260507232826 | 12 | 336 | 1.6 | 3.2 | 0.00 | 0.03 | 0.03 | 59 | 1013.2 |
| 20260507232322 | 12 | 326 | 9.7 | 14.5 | 0.00 | 0.03 | 0.03 | 59 | 1012.7 |
| 20260507231819 | 12 | 344 | 3.2 | 4.8 | 0.00 | 0.03 | 0.03 | 60 | 1013.2 |
| 20260507231316 | 12 | 339 | 3.2 | 3.2 | 0.00 | 0.03 | 0.03 | 59 | 1013.1 |
| 20260507230812 | 12 | 297 | 4.8 | 4.8 | 0.00 | 0.03 | 0.03 | 60 | 1012.9 |
| 20260507230310 | 11 | 342 | 4.8 | 8.0 | 0.00 | 0.03 | 0.03 | 62 | 1013.2 |
| 20260507225810 | 12 | 334 | 3.2 | 4.8 | 0.00 | 0.03 | 0.03 | 62 | 1012.7 |
| 20260507225306 | 12 | 338 | 1.6 | 1.6 | 0.00 | 0.03 | 0.03 | 61 | 1012.8 |
| 20260507224802 | 12 | 312 | 4.8 | 4.8 | 0.00 | 0.03 | 0.03 | 61 | 1012.5 |
| 20260507224259 | 12 | 277 | 4.8 | 4.8 | 0.00 | 0.03 | 0.03 | 63 | 1012.6 |
| 20260507223755 | 12 | 306 | 4.8 | 4.8 | 0.00 | 0.03 | 0.03 | 63 | 1012.7 |
| 20260507223251 | 12 | 306 | 3.2 | 4.8 | 0.00 | 0.03 | 0.03 | 60 | 1012.5 |
| 20260507222749 | 12 | 318 | 4.8 | 4.8 | 0.00 | 0.03 | 0.03 | 61 | 1012.7 |
| 20260507222245 | 12 | 27 | 4.8 | 4.8 | 0.00 | 0.03 | 0.03 | 62 | 1012.5 |
| 20260507221742 | 13 | 309 | 4.8 | 4.8 | 0.00 | 0.03 | 0.03 | 63 | 1012.3 |
| 20260507221238 | 13 | 318 | 6.4 | 8.0 | 0.00 | 0.03 | 0.03 | 59 | 1012.4 |
| 20260507220735 | 13 | 327 | 4.8 | 4.8 | 0.00 | 0.03 | 0.03 | 63 | 1012.3 |
| 20260507220233 | 13 | 331 | 3.2 | 3.2 | 0.00 | 0.03 | 0.03 | 61 | 1012.3 |
| 20260507215729 | 13 | 33 | 4.8 | 4.8 | 0.00 | 0.03 | 0.03 | 61 | 1012.5 |
| 20260507215227 | 12 | 343 | 0.0 | 1.6 | 0.00 | 0.03 | 0.03 | 63 | 1012.2 |
| 20260507214724 | 12 | 332 | 4.8 | 4.8 | 0.00 | 0.03 | 0.03 | 63 | 1012.0 |
| 20260507214221 | 12 | 297 | 4.8 | 4.8 | 0.00 | 0.03 | 0.03 | 64 | 1012.3 |
| 20260507213716 | 12 | 302 | 4.8 | 8.0 | 0.00 | 0.03 | 0.03 | 63 | 1012.3 |
| 20260507213213 | 13 | 345 | 1.6 | 1.6 | 0.00 | 0.03 | 0.03 | 61 | 1012.3 |
| 20260507212709 | 13 | 290 | 1.6 | 3.2 | 0.00 | 0.03 | 0.03 | 63 | 1012.1 |
| 20260507212206 | 13 | 326 | 9.7 | 12.9 | 0.00 | 0.03 | 0.03 | 59 | 1012.0 |
| 20260507211703 | 12 | 53 | 3.2 | 3.2 | 0.00 | 0.03 | 0.03 | 63 | 1011.8 |
| 20260507211158 | 13 | 302 | 3.2 | 4.8 | 0.00 | 0.03 | 0.03 | 62 | 1012.1 |
| 20260507210656 | 13 | 354 | 3.2 | 3.2 | 0.00 | 0.03 | 0.03 | 62 | 1011.9 |
| 20260507210153 | 12 | 337 | 4.8 | 4.8 | 0.00 | 0.03 | 0.03 | 63 | 1012.0 |
| 20260507205649 | 13 | 334 | 1.6 | 3.2 | 0.00 | 0.03 | 0.03 | 62 | 1011.8 |
| 20260507205146 | 13 | 325 | 1.6 | 1.6 | 0.00 | 0.03 | 0.03 | 64 | 1012.1 |
| 20260507204642 | 13 | 347 | 3.2 | 3.2 | 0.00 | 0.03 | 0.03 | 62 | 1012.0 |
| 20260507204140 | 12 | 328 | 3.2 | 4.8 | 0.00 | 0.03 | 0.03 | 64 | 1012.0 |
| 20260507203637 | 12 | 352 | 3.2 | 3.2 | 0.00 | 0.03 | 0.03 | 63 | 1011.7 |
| 20260507203135 | 12 | 325 | 4.8 | 4.8 | 0.00 | 0.03 | 0.03 | 63 | 1011.6 |
| 20260507202630 | 12 | 308 | 3.2 | 4.8 | 0.00 | 0.03 | 0.03 | 66 | 1011.9 |
| 20260507202127 | 12 | 349 | 3.2 | 3.2 | 0.00 | 0.03 | 0.03 | 66 | 1012.0 |
| 20260507201622 | 12 | 322 | 1.6 | 1.6 | 0.00 | 0.03 | 0.03 | 66 | 1011.9 |
| 20260507201119 | 12 | 337 | 1.6 | 3.2 | 0.00 | 0.03 | 0.03 | 66 | 1011.9 |
| 20260507200615 | 12 | 12 | 6.4 | 9.7 | 0.00 | 0.03 | 0.03 | 63 | 1012.2 |
| 20260507200111 | 12 | 330 | 4.8 | 4.8 | 0.00 | 0.03 | 0.03 | 63 | 1012.0 |
| 20260507195608 | 12 | 327 | 4.8 | 4.8 | 0.00 | 0.03 | 0.03 | 63 | 1012.1 |
| 20260507195106 | 12 | 327 | 1.6 | 3.2 | 0.00 | 0.03 | 0.03 | 65 | 1012.4 |
| 20260507194602 | 12 | 311 | 1.6 | 1.6 | 0.00 | 0.03 | 0.03 | 66 | 1012.3 |
| 20260507194057 | 12 | 311 | 1.6 | 3.2 | 0.00 | 0.03 | 0.03 | 65 | 1012.2 |
| 20260507193555 | 12 | 331 | 4.8 | 4.8 | 0.00 | 0.03 | 0.03 | 67 | 1012.3 |
| 20260507193052 | 12 | 286 | 4.8 | 8.0 | 0.00 | 0.03 | 0.03 | 64 | 1012.2 |
| 20260507192548 | 12 | 293 | 3.2 | 3.2 | 0.00 | 0.03 | 0.03 | 64 | 1012.3 |
| 20260507192045 | 12 | 344 | 6.4 | 11.3 | 0.00 | 0.03 | 0.03 | 67 | 1012.5 |
| 20260507191541 | 11 | 345 | 1.6 | 3.2 | 0.00 | 0.03 | 0.03 | 69 | 1012.5 |
| 20260507191038 | 11 | 332 | 1.6 | 1.6 | 0.00 | 0.03 | 0.03 | 69 | 1012.5 |
| 20260507190535 | 11 | 340 | 1.6 | 1.6 | 0.00 | 0.03 | 0.03 | 69 | 1012.5 |
| 20260507190034 | 11 | 337 | 1.6 | 1.6 | 0.00 | 0.03 | 0.03 | 70 | 1012.7 |
| 20260507185532 | 11 | 317 | 4.8 | 4.8 | 0.00 | 0.03 | 0.03 | 70 | 1012.7 |
| 20260507185028 | 11 | 282 | 6.4 | 8.0 | 0.00 | 0.03 | 0.03 | 68 | 1012.7 |
| 20260507184526 | 11 | 277 | 6.4 | 8.0 | 0.00 | 0.03 | 0.03 | 69 | 1012.8 |
| 20260507184024 | 11 | 319 | 0.0 | 1.6 | 0.00 | 0.03 | 0.03 | 71 | 1012.9 |
| 20260507183519 | 10 | 331 | 1.6 | 3.2 | 0.00 | 0.03 | 0.03 | 72 | 1013.1 |
| 20260507183017 | 10 | 316 | 4.8 | 4.8 | 0.00 | 0.03 | 0.03 | 73 | 1013.4 |
| 20260507182513 | 11 | 309 | 4.8 | 4.8 | 0.00 | 0.03 | 0.03 | 72 | 1013.2 |
| 20260507182009 | 11 | 352 | 4.8 | 4.8 | 0.00 | 0.03 | 0.03 | 72 | 1012.8 |
| 20260507181506 | 11 | 280 | 3.2 | 4.8 | 0.00 | 0.03 | 0.03 | 72 | 1012.8 |
| 20260507181002 | 11 | 356 | 4.8 | 4.8 | 0.00 | 0.03 | 0.03 | 71 | 1012.8 |
| 20260507180459 | 11 | 301 | 4.8 | 4.8 | 0.00 | 0.03 | 0.03 | 71 | 1012.9 |
| 20260507175955 | 11 | 345 | 6.4 | 8.0 | 0.00 | 0.03 | 0.03 | 70 | 1012.9 |
| 20260507175452 | 11 | 286 | 6.4 | 9.7 | 0.00 | 0.03 | 0.03 | 70 | 1012.6 |
| 20260507174949 | 11 | 337 | 1.6 | 3.2 | 0.00 | 0.03 | 0.03 | 69 | 1012.6 |
| 20260507174446 | 11 | 348 | 3.2 | 3.2 | 0.00 | 0.03 | 0.03 | 67 | 1012.8 |
| 20260507173943 | 11 | 359 | 3.2 | 3.2 | 0.00 | 0.03 | 0.03 | 67 | 1012.8 |
| 20260507173441 | 11 | 333 | 3.2 | 3.2 | 0.00 | 0.03 | 0.03 | 69 | 1013.1 |
| 20260507172937 | 11 | 290 | 6.4 | 8.0 | 0.00 | 0.03 | 0.03 | 67 | 1012.8 |
| 20260507172434 | 11 | 334 | 3.2 | 3.2 | 0.00 | 0.03 | 0.03 | 64 | 1013.1 |
| 20260507171931 | 11 | 326 | 3.2 | 3.2 | 0.00 | 0.03 | 0.03 | 63 | 1013.3 |
| 20260507171426 | 11 | 351 | 3.2 | 3.2 | 0.00 | 0.03 | 0.03 | 63 | 1013.1 |
| 20260507170924 | 12 | 334 | 3.2 | 3.2 | 0.00 | 0.03 | 0.03 | 64 | 1012.9 |
| 20260507170420 | 12 | 356 | 1.6 | 3.2 | 0.00 | 0.03 | 0.03 | 62 | 1013.1 |
| 20260507165917 | 11 | 341 | 1.6 | 1.6 | 0.00 | 0.03 | 0.03 | 64 | 1013.3 |
| 20260507165413 | 11 | 340 | 4.8 | 4.8 | 0.00 | 0.03 | 0.03 | 64 | 1013.1 |
| 20260507164909 | 10 | 359 | 0.0 | 1.6 | 0.00 | 0.03 | 0.03 | 65 | 1013.2 |
| 20260507164406 | 10 | 331 | 3.2 | 3.2 | 0.00 | 0.03 | 0.03 | 64 | 1013.2 |
| 20260507163903 | 10 | 346 | 4.8 | 4.8 | 0.00 | 0.03 | 0.03 | 64 | 1013.4 |
| 20260507163401 | 10 | 356 | 1.6 | 1.6 | 0.00 | 0.03 | 0.03 | 65 | 1013.3 |
| 20260507162857 | 11 | 335 | 3.2 | 3.2 | 0.00 | 0.03 | 0.03 | 66 | 1013.3 |
| 20260507162352 | 12 | 346 | 3.2 | 3.2 | 0.00 | 0.03 | 0.03 | 59 | 1013.4 |
| 20260507161850 | 11 | 349 | 3.2 | 3.2 | 0.00 | 0.03 | 0.03 | 62 | 1013.2 |
| 20260507161346 | 11 | 332 | 1.6 | 1.6 | 0.00 | 0.03 | 0.03 | 61 | 1013.1 |
| 20260507160843 | 10 | 341 | 0.0 | 0.0 | 0.00 | 0.03 | 0.03 | 65 | 1013.2 |
| 20260507160338 | 11 | 5 | 6.4 | 8.0 | 0.00 | 0.03 | 0.03 | 62 | 1013.6 |
| 20260507155835 | 10 | 96 | 4.8 | 4.8 | 0.00 | 0.03 | 0.03 | 63 | 1013.4 |
| 20260507155331 | 10 | 355 | 4.8 | 8.0 | 0.00 | 0.03 | 0.03 | 63 | 1013.4 |
| 20260507154828 | 10 | 11 | 3.2 | 3.2 | 0.00 | 0.03 | 0.03 | 63 | 1013.3 |
| 20260507154325 | 10 | 17 | 1.6 | 3.2 | 0.00 | 0.03 | 0.03 | 63 | 1013.5 |
| 20260507153822 | 10 | 73 | 3.2 | 3.2 | 0.00 | 0.03 | 0.03 | 65 | 1013.6 |
| 20260507153318 | 10 | 324 | 4.8 | 4.8 | 0.00 | 0.03 | 0.03 | 65 | 1013.4 |
| 20260507152815 | 10 | 15 | 1.6 | 3.2 | 0.00 | 0.03 | 0.03 | 69 | 1013.6 |
| 20260507152311 | 10 | 324 | 3.2 | 3.2 | 0.00 | 0.03 | 0.03 | 66 | 1013.4 |
| 20260507151807 | 10 | 329 | 1.6 | 1.6 | 0.00 | 0.03 | 0.03 | 66 | 1013.6 |
| 20260507151303 | 10 | 23 | 3.2 | 8.0 | 0.00 | 0.03 | 0.03 | 67 | 1013.3 |
| 20260507150801 | 10 | 25 | 1.6 | 1.6 | 0.00 | 0.03 | 0.03 | 65 | 1013.6 |
| 20260507150257 | 10 | 11 | 3.2 | 3.2 | 0.00 | 0.03 | 0.03 | 65 | 1013.7 |
| 20260507145753 | 10 | 8 | 1.6 | 1.6 | 0.00 | 0.03 | 0.03 | 66 | 1013.9 |
| 20260507145250 | 10 | 353 | 1.6 | 3.2 | 0.00 | 0.03 | 0.03 | 68 | 1013.8 |
| 20260507144747 | 9 | 113 | 3.2 | 3.2 | 0.00 | 0.03 | 0.03 | 67 | 1013.7 |
| 20260507144244 | 9 | 343 | 3.2 | 3.2 | 0.00 | 0.03 | 0.03 | 69 | 1013.7 |
| 20260507143741 | 8 | 1 | 1.6 | 1.6 | 0.00 | 0.03 | 0.03 | 72 | 1013.4 |
| 20260507143238 | 9 | 313 | 3.2 | 3.2 | 0.00 | 0.03 | 0.03 | 73 | 1013.6 |
| 20260507142734 | 8 | 28 | 1.6 | 1.6 | 0.00 | 0.03 | 0.03 | 72 | 1013.5 |
| 20260507142231 | 8 | 74 | 6.4 | 8.0 | 0.00 | 0.03 | 0.03 | 73 | 1013.5 |
| 20260507141727 | 8 | 63 | 1.6 | 3.2 | 0.00 | 0.03 | 0.03 | 76 | 1013.7 |
| 20260507141224 | 8 | 354 | 0.0 | 1.6 | 0.00 | 0.03 | 0.03 | 78 | 1013.6 |
| 20260507140720 | 8 | 347 | 6.4 | 9.7 | 0.00 | 0.03 | 0.03 | 79 | 1013.9 |
| 20260507140218 | 8 | 314 | 1.6 | 1.6 | 0.00 | 0.03 | 0.03 | 81 | 1013.9 |
| 20260507135715 | 8 | 358 | 3.2 | 3.2 | 0.00 | 0.03 | 0.03 | 82 | 1014.0 |
| 20260507135212 | 8 | 340 | 3.2 | 4.8 | 0.00 | 0.03 | 0.03 | 84 | 1013.8 |
| 20260507134708 | 8 | 337 | 1.6 | 1.6 | 0.00 | 0.03 | 0.03 | 84 | 1013.8 |
| 20260507134205 | 7 | 352 | 3.2 | 3.2 | 0.00 | 0.03 | 0.03 | 84 | 1014.0 |
| 20260507133700 | 7 | 334 | 0.0 | 0.0 | 0.00 | 0.03 | 0.03 | 84 | 1014.1 |
| 20260507133158 | 7 | 329 | 0.0 | 1.6 | 0.00 | 0.03 | 0.03 | 85 | 1014.1 |
| 20260507132655 | 7 | 14 | 1.6 | 1.6 | 0.00 | 0.03 | 0.03 | 87 | 1014.1 |
| 20260507132151 | 7 | 343 | 1.6 | 1.6 | 0.00 | 0.03 | 0.03 | 86 | 1014.3 |
| 20260507131648 | 7 | 356 | 0.0 | 1.6 | 0.00 | 0.03 | 0.03 | 88 | 1013.9 |
| 20260507131146 | 7 | 328 | 1.6 | 3.2 | 0.00 | 0.03 | 0.03 | 89 | 1014.0 |
| 20260507130642 | 7 | 11 | 0.0 | 0.0 | 0.00 | 0.03 | 0.03 | 89 | 1014.0 |
| 20260507130140 | 7 | 337 | 1.6 | 1.6 | 0.00 | 0.03 | 0.03 | 89 | 1014.1 |
| 20260507125639 | 7 | 349 | 0.0 | 0.0 | 0.00 | 0.03 | 0.03 | 89 | 1014.0 |
| 20260507125136 | 7 | 358 | 0.0 | 0.0 | 0.00 | 0.03 | 0.03 | 90 | 1013.8 |
| 20260507124632 | 7 | 353 | 0.0 | 0.0 | 0.00 | 0.03 | 0.03 | 89 | 1014.2 |
| 20260507124130 | 7 | 15 | 1.6 | 1.6 | 0.00 | 0.03 | 0.03 | 89 | 1014.5 |
| 20260507123628 | 7 | 324 | 1.6 | 1.6 | 0.00 | 0.03 | 0.03 | 90 | 1014.5 |
| 20260507123125 | 7 | 335 | 0.0 | 0.0 | 0.00 | 0.03 | 0.03 | 90 | 1014.2 |
| 20260507122620 | 7 | 341 | 0.0 | 0.0 | 0.00 | 0.03 | 0.03 | 90 | 1014.0 |
| 20260507122116 | 6 | 349 | 1.6 | 1.6 | 0.00 | 0.03 | 0.03 | 90 | 1014.1 |
| 20260507121612 | 7 | 342 | 0.0 | 1.6 | 0.00 | 0.03 | 0.03 | 91 | 1014.0 |
| 20260507121108 | 7 | 332 | 0.0 | 0.0 | 0.00 | 0.03 | 0.03 | 91 | 1013.9 |
| 20260507120604 | 6 | 332 | 0.0 | 0.0 | 0.00 | 0.03 | 0.03 | 91 | 1013.9 |
| 20260507115557 | 6 | 345 | 1.6 | 1.6 | 0.00 | 0.03 | 0.03 | 92 | 1014.0 |
| 20260507115053 | 6 | 325 | 0.0 | 1.6 | 0.00 | 0.03 | 0.03 | 93 | 1013.9 |
| 20260507114549 | 6 | 358 | 0.0 | 1.6 | 0.00 | 0.03 | 0.03 | 92 | 1014.0 |
| 20260507114047 | 6 | 21 | 3.2 | 3.2 | 0.00 | 0.03 | 0.03 | 93 | 1013.8 |
| 20260507113543 | 6 | 3 | 1.6 | 1.6 | 0.00 | 0.03 | 0.03 | 93 | 1014.0 |
| 20260507113041 | 6 | 350 | 0.0 | 0.0 | 0.00 | 0.03 | 0.03 | 94 | 1013.7 |
| 20260507112539 | 6 | 325 | 0.0 | 0.0 | 0.00 | 0.03 | 0.03 | 95 | 1013.8 |
| 20260507112035 | 6 | 324 | 0.0 | 0.0 | 0.00 | 0.03 | 0.03 | 95 | 1013.8 |
| 20260507111532 | 6 | 323 | 0.0 | 0.0 | 0.00 | 0.03 | 0.03 | 96 | 1013.7 |
| 20260507111029 | 6 | 354 | 0.0 | 0.0 | 0.00 | 0.03 | 0.03 | 96 | 1013.8 |
| 20260507110525 | 6 | 357 | 0.0 | 0.0 | 0.00 | 0.03 | 0.03 | 97 | 1013.6 |
| 20260507110022 | 6 | 4 | 1.6 | 1.6 | 0.00 | 0.03 | 0.03 | 97 | 1013.6 |
| 20260507105519 | 6 | 331 | 0.0 | 0.0 | 0.00 | 0.03 | 0.03 | 97 | 1013.7 |
| 20260507105015 | 6 | 337 | 1.6 | 1.6 | 0.00 | 0.03 | 0.03 | 98 | 1013.6 |
| 20260507104513 | 6 | 1 | 1.6 | 1.6 | 0.00 | 0.03 | 0.03 | 99 | 1013.3 |
| 20260507104008 | 6 | 343 | 1.6 | 1.6 | 0.00 | 0.03 | 0.03 | 99 | 1013.4 |
| 20260507103505 | 6 | 335 | 0.0 | 0.0 | 0.00 | 0.03 | 0.03 | 99 | 1013.4 |
| 20260507103001 | 6 | 353 | 3.2 | 3.2 | 0.00 | 0.03 | 0.03 | 99 | 1013.3 |
| 20260507102458 | 6 | 339 | 1.6 | 1.6 | 0.00 | 0.03 | 0.03 | 99 | 1013.5 |
| 20260507101954 | 7 | 340 | 1.6 | 1.6 | 0.00 | 0.03 | 0.03 | 99 | 1013.2 |
| 20260507101449 | 6 | 337 | 0.0 | 0.0 | 0.00 | 0.03 | 0.03 | 99 | 1013.4 |
| 20260507100946 | 6 | 326 | 1.6 | 1.6 | 0.00 | 0.03 | 0.03 | 99 | 1013.2 |
| 20260507100444 | 7 | 327 | 1.6 | 1.6 | 0.00 | 0.03 | 0.03 | 99 | 1013.1 |
| 20260507095942 | 7 | 349 | 1.6 | 1.6 | 0.00 | 0.03 | 0.03 | 99 | 1012.8 |
| 20260507095439 | 7 | 348 | 3.2 | 3.2 | 0.00 | 0.03 | 0.03 | 99 | 1012.9 |
| 20260507094936 | 7 | 352 | 0.0 | 0.0 | 0.00 | 0.03 | 0.03 | 99 | 1012.8 |
| 20260507094432 | 7 | 335 | 1.6 | 1.6 | 0.00 | 0.03 | 0.03 | 99 | 1013.2 |
| 20260507093929 | 7 | 346 | 1.6 | 1.6 | 0.00 | 0.03 | 0.03 | 99 | 1013.2 |
| 20260507093427 | 7 | 25 | 0.0 | 3.2 | 0.00 | 0.03 | 0.03 | 99 | 1013.2 |
| 20260507092925 | 7 | 330 | 1.6 | 1.6 | 0.00 | 0.03 | 0.03 | 99 | 1013.2 |
| 20260507092421 | 7 | 354 | 0.0 | 1.6 | 0.00 | 0.03 | 0.03 | 99 | 1013.3 |
| 20260507091918 | 7 | 350 | 1.6 | 3.2 | 0.00 | 0.03 | 0.03 | 99 | 1013.3 |
| 20260507091414 | 7 | 355 | 0.0 | 1.6 | 0.00 | 0.03 | 0.03 | 99 | 1013.3 |
| 20260507090910 | 7 | 341 | 0.0 | 1.6 | 0.00 | 0.03 | 0.03 | 99 | 1013.3 |
| 20260507090407 | 7 | 336 | 0.0 | 1.6 | 0.00 | 0.03 | 0.03 | 99 | 1012.9 |
| 20260507085903 | 7 | 335 | 0.0 | 0.0 | 0.00 | 0.03 | 0.03 | 99 | 1012.8 |
| 20260507085400 | 8 | 358 | 0.0 | 0.0 | 0.00 | 0.03 | 0.03 | 99 | 1012.9 |
| 20260507084858 | 8 | 349 | 0.0 | 0.0 | 0.00 | 0.03 | 0.03 | 99 | 1012.7 |
| 20260507084354 | 7 | 347 | 0.0 | 0.0 | 0.00 | 0.03 | 0.03 | 99 | 1013.2 |
| 20260507083851 | 8 | 348 | 0.0 | 0.0 | 0.00 | 0.03 | 0.03 | 99 | 1013.2 |
| 20260507083347 | 7 | 353 | 0.0 | 0.0 | 0.00 | 0.03 | 0.03 | 99 | 1013.3 |
| 20260507082844 | 7 | 342 | 0.0 | 0.0 | 0.00 | 0.03 | 0.03 | 99 | 1012.9 |
| 20260507082339 | 7 | 4 | 1.6 | 1.6 | 0.00 | 0.03 | 0.03 | 99 | 1013.4 |
| 20260507081837 | 7 | 333 | 1.6 | 1.6 | 0.00 | 0.03 | 0.03 | 99 | 1013.2 |
| 20260507081333 | 8 | 344 | 0.0 | 0.0 | 0.00 | 0.03 | 0.03 | 99 | 1012.9 |
| 20260507080830 | 8 | 342 | 0.0 | 0.0 | 0.00 | 0.03 | 0.03 | 99 | 1013.2 |
| 20260507080326 | 8 | 350 | 3.2 | 3.2 | 0.00 | 0.03 | 0.03 | 99 | 1013.5 |
| 20260507075821 | 8 | 348 | 3.2 | 3.2 | 0.00 | 0.03 | 0.03 | 99 | 1013.5 |
| 20260507075318 | 8 | 318 | 1.6 | 3.2 | 0.00 | 0.03 | 0.03 | 99 | 1013.3 |
| 20260507074814 | 8 | 331 | 0.0 | 0.0 | 0.00 | 0.03 | 0.03 | 99 | 1013.2 |
| 20260507074312 | 8 | 340 | 1.6 | 1.6 | 0.00 | 0.03 | 0.03 | 99 | 1012.9 |
| 20260507073809 | 8 | 340 | 0.0 | 0.0 | 0.00 | 0.03 | 0.03 | 99 | 1013.1 |
| 20260507073306 | 8 | 345 | 0.0 | 0.0 | 0.00 | 0.03 | 0.03 | 99 | 1013.1 |
| 20260507072803 | 8 | 337 | 0.0 | 1.6 | 0.00 | 0.03 | 0.03 | 99 | 1013.2 |
| 20260507072300 | 8 | 342 | 0.0 | 0.0 | 0.00 | 0.03 | 0.03 | 99 | 1013.1 |
| 20260507071758 | 8 | 349 | 0.0 | 0.0 | 0.00 | 0.03 | 0.03 | 99 | 1013.2 |
| 20260507071254 | 8 | 349 | 0.0 | 1.6 | 0.18 | 0.03 | 0.03 | 99 | 1013.1 |
| 20260507070751 | 8 | 346 | 0.0 | 0.0 | 0.18 | 0.03 | 0.03 | 99 | 1013.3 |
| 20260507070248 | 8 | 351 | 0.0 | 0.0 | 0.00 | 0.00 | 0.00 | 99 | 1013.3 |
| 20260507065744 | 8 | 13 | 1.6 | 3.2 | 0.00 | 0.00 | 0.00 | 99 | 1013.1 |
| 20260507065241 | 8 | 350 | 0.0 | 0.0 | 0.00 | 0.00 | 0.00 | 99 | 1013.2 |
| 20260507064738 | 8 | 352 | 4.8 | 4.8 | 0.00 | 0.00 | 0.00 | 99 | 1013.3 |
| 20260507064238 | 8 | 331 | 0.0 | 0.0 | 0.00 | 0.00 | 0.00 | 99 | 1013.5 |
| 20260507063734 | 8 | 340 | 0.0 | 1.6 | 0.00 | 0.00 | 0.00 | 99 | 1013.6 |
| 20260507063231 | 8 | 344 | 4.8 | 4.8 | 0.00 | 0.00 | 0.00 | 99 | 1013.5 |
| 20260507062728 | 8 | 351 | 3.2 | 3.2 | 0.00 | 0.00 | 0.00 | 99 | 1013.2 |
| 20260507062225 | 8 | 346 | 0.0 | 0.0 | 0.00 | 0.00 | 0.00 | 99 | 1013.5 |
| 20260507061723 | 8 | 337 | 1.6 | 1.6 | 0.00 | 0.00 | 0.00 | 99 | 1013.9 |
| 20260507061221 | 8 | 322 | 0.0 | 0.0 | 0.00 | 0.00 | 0.00 | 99 | 1013.5 |
| 20260507060719 | 8 | 335 | 0.0 | 0.0 | 0.00 | 0.00 | 0.00 | 99 | 1013.3 |
| 20260507060215 | 8 | 334 | 0.0 | 0.0 | 0.00 | 0.00 | 0.00 | 99 | 1013.1 |
| 20260507055711 | 8 | 332 | 0.0 | 0.0 | 0.00 | 0.00 | 0.00 | 99 | 1013.1 |
| 20260507055207 | 8 | 331 | 0.0 | 0.0 | 0.00 | 0.00 | 0.00 | 99 | 1013.3 |
| 20260507054703 | 8 | 277 | 3.2 | 3.2 | 0.00 | 0.00 | 0.00 | 99 | 1013.2 |
| 20260507054200 | 8 | 356 | 3.2 | 3.2 | 0.00 | 0.00 | 0.00 | 99 | 1013.6 |
| 20260507053658 | 8 | 338 | 1.6 | 3.2 | 0.00 | 0.00 | 0.00 | 99 | 1013.8 |
| 20260507053156 | 8 | 334 | 1.6 | 1.6 | 0.00 | 0.00 | 0.00 | 99 | 1013.6 |
| 20260507052654 | 8 | 343 | 3.2 | 3.2 | 0.00 | 0.00 | 0.00 | 99 | 1013.5 |
| 20260507052150 | 9 | 311 | 3.2 | 4.8 | 0.00 | 0.00 | 0.00 | 99 | 1013.4 |
| 20260507051648 | 9 | 325 | 1.6 | 3.2 | 0.00 | 0.00 | 0.00 | 99 | 1013.9 |
| 20260507051144 | 9 | 336 | 1.6 | 1.6 | 0.00 | 0.00 | 0.00 | 99 | 1013.9 |
| 20260507050641 | 9 | 355 | 4.8 | 8.0 | 0.00 | 0.00 | 0.00 | 99 | 1013.9 |
| 20260507050138 | 10 | 314 | 3.2 | 3.2 | 0.00 | 0.00 | 0.00 | 99 | 1013.7 |
| 20260507045635 | 10 | 310 | 3.2 | 4.8 | 0.00 | 0.00 | 0.00 | 99 | 1013.6 |
| 20260507045131 | 10 | 325 | 0.0 | 0.0 | 0.00 | 0.00 | 0.00 | 99 | 1013.8 |
| 20260507044629 | 10 | 328 | 1.6 | 1.6 | 0.00 | 0.00 | 0.00 | 99 | 1013.8 |
| 20260507044125 | 10 | 318 | 3.2 | 3.2 | 0.00 | 0.00 | 0.00 | 99 | 1013.8 |
| 20260507043621 | 10 | 330 | 1.6 | 1.6 | 0.00 | 0.00 | 0.00 | 99 | 1013.7 |
| 20260507043118 | 10 | 325 | 1.6 | 1.6 | 0.00 | 0.00 | 0.00 | 99 | 1013.6 |
| 20260507042614 | 10 | 333 | 3.2 | 3.2 | 0.00 | 0.00 | 0.00 | 99 | 1013.7 |
| 20260507042110 | 10 | 337 | 1.6 | 3.2 | 0.00 | 0.00 | 0.00 | 99 | 1013.8 |
| 20260507041607 | 10 | 1 | 4.8 | 4.8 | 0.00 | 0.00 | 0.00 | 99 | 1013.9 |
| 20260507041104 | 10 | 345 | 1.6 | 1.6 | 0.00 | 0.00 | 0.00 | 99 | 1013.8 |
| 20260507040600 | 10 | 336 | 1.6 | 3.2 | 0.00 | 0.00 | 0.00 | 99 | 1013.4 |
| 20260507040057 | 10 | 343 | 3.2 | 3.2 | 0.00 | 0.00 | 0.00 | 99 | 1013.7 |
| 20260507035553 | 10 | 354 | 1.6 | 3.2 | 0.00 | 1.37 | 1.37 | 99 | 1013.2 |
| 20260507035049 | 10 | 327 | 4.8 | 4.8 | 0.00 | 1.37 | 1.37 | 99 | 1013.4 |
| 20260507034546 | 10 | 353 | 0.0 | 0.0 | 0.00 | 1.37 | 1.37 | 99 | 1013.3 |
| 20260507034044 | 10 | 321 | 1.6 | 3.2 | 0.00 | 1.37 | 1.37 | 99 | 1013.5 |
| 20260507033542 | 10 | 332 | 3.2 | 3.2 | 0.00 | 1.37 | 1.37 | 99 | 1013.1 |
| 20260507033039 | 10 | 313 | 1.6 | 3.2 | 0.00 | 1.37 | 1.37 | 99 | 1013.2 |
| 20260507032536 | 10 | 334 | 3.2 | 3.2 | 0.00 | 1.37 | 1.37 | 99 | 1012.9 |
| 20260507032032 | 10 | 343 | 3.2 | 3.2 | 0.00 | 1.37 | 1.37 | 99 | 1012.8 |
| 20260507031528 | 10 | 340 | 3.2 | 3.2 | 0.00 | 1.37 | 1.37 | 99 | 1012.1 |
| 20260507031026 | 10 | 101 | 4.8 | 4.8 | 0.00 | 1.37 | 1.37 | 99 | 1012.0 |
| 20260507030522 | 10 | 268 | 0.0 | 0.0 | 0.00 | 1.37 | 1.37 | 99 | 1012.6 |
| 20260507030020 | 10 | 310 | 0.0 | 0.0 | 0.00 | 1.37 | 1.37 | 99 | 1013.1 |
| 20260507025517 | 10 | 317 | 0.0 | 0.0 | 0.00 | 1.37 | 1.37 | 99 | 1013.3 |
| 20260507025014 | 10 | 335 | 1.6 | 1.6 | 0.00 | 1.37 | 1.37 | 99 | 1013.7 |
| 20260507024512 | 11 | 319 | 1.6 | 3.2 | 0.00 | 1.37 | 1.37 | 99 | 1014.1 |
| 20260507024008 | 11 | 320 | 3.2 | 3.2 | 0.00 | 1.37 | 1.37 | 99 | 1014.0 |